DW1449 Weather Reports


Display with metric or nautical units.
time (UTC)temp
F
wind
direction
speed
MPH
gust
MPH
rain 1hr
in
rain 24hr
in
rain mn
in
humidity
%
barometer
mb
20260904174553 58 0.0 0.0 0.00 1.09 1.09 98 1000.2
20260904173050 58 0.0 0.0 0.00 1.09 1.09 98 1000.2
20260904171600 58 0.0 0.0 0.00 1.09 1.09 98 999.9
20260904170057 58 0.0 0.0 0.00 1.09 1.09 98 999.8
20260904164557 58 0.0 0.0 0.00 1.09 1.09 98 1000.0
20260904163049 57 0.0 0.0 0.00 1.09 1.09 98 1000.0
20260904161556 57 0.0 0.0 0.00 1.09 1.09 98 1000.1
20260904160055 58 0.0 0.0 0.00 1.09 1.09 98 1000.3
20260904154557 58 0.0 0.0 0.00 1.09 1.09 98 1000.0
20260904153100 58 0.0 0.0 0.02 1.09 1.09 99 1000.0
20260904151557 58 0.0 0.0 0.07 1.09 1.09 99 1000.1
20260904150053 58 0.0 0.0 0.11 1.09 1.09 99 999.8
20260904144550 57 0.0 0.0 0.23 1.09 1.08 98 1000.1
20260904143059 57 0.0 0.0 0.48 1.07 1.07 98 1000.5
20260904141556 58 0.0 0.0 0.60 1.02 1.01 98 1000.7
20260904140139 57 0.0 0.0 0.70 0.98 0.97 98 1000.7
20260904134604 57 0.0 0.0 0.63 0.85 0.84 97 1000.6
20260904133103 58 0.0 0.0 0.40 0.59 0.59 97 1000.5
20260904131555 59 0.0 0.0 0.25 0.41 0.40 97 1000.4
20260904130055 59 0.0 0.0 0.12 0.26 0.25 97 1000.6
20260904124617 59 0.0 0.0 0.08 0.22 0.20 98 1000.9
20260904123055 59 0.0 0.0 0.08 0.20 0.18 97 1001.3
20260904121550 59 0.0 0.0 0.07 0.17 0.15 97 1001.3
20260904114555 59 0.0 0.0 0.04 0.12 0.11 97 1001.5
20260904113055 59 0.0 0.0 0.05 0.11 0.10 97 1001.5
20260904111603 59 0.0 0.0 0.03 0.09 0.07 97 1001.8
20260904110100 59 0.0 0.0 0.03 0.08 0.07 96 1002.1
20260904104555 59 0.0 0.0 0.03 0.13 0.06 96 1002.3
20260904103055 59 0.0 0.0 0.03 0.11 0.04 96 1002.6
20260904101554 59 0.0 0.0 0.03 0.11 0.03 96 1002.9
20260904100057 58 0.0 0.0 0.03 0.10 0.03 95 1003.0
20260904094555 58 0.0 0.0 0.02 0.09 0.02 94 1003.4
20260904093056 58 0.0 0.0 0.01 0.08 0.01 93 1003.6
20260904091553 59 0.0 0.0 0.00 0.07 0.00 91 1004.0
20260904090051 59 0.0 0.0 0.00 0.07 0.00 91 1004.3
20260904084557 59 0.0 0.0 0.00 0.07 0.00 91 1004.4
20260904083054 59 0.0 0.0 0.00 0.07 0.00 91 1004.5
20260904081550 59 0.0 0.0 0.00 0.07 0.00 91 1004.6
20260904080050 59 0.0 0.0 0.00 0.07 0.00 93 1004.7
20260904074609 59 0.0 0.0 0.00 0.07 0.00 94 1004.6
20260904073058 58 0.0 0.0 0.00 0.07 0.00 94 1004.8
20260904071553 59 0.0 0.0 0.00 0.07 0.00 94 1005.0
20260904070100 59 0.0 0.0 0.00 0.07 0.00 94 1005.2
20260904064555 58 0.0 0.0 0.00 0.08 0.00 94 1005.4
20260904063102 58 0.0 0.0 0.00 0.08 0.00 94 1005.5
20260904061551 58 0.0 0.0 0.00 0.08 0.00 94 1005.6
20260904060105 58 0.0 0.0 0.00 0.08 0.00 93 1005.8
20260904054556 58 0.0 0.0 0.00 0.14 0.00 93 1006.2
20260904053055 58 0.0 0.0 0.00 0.14 0.00 93 1006.2
20260904051602 58 0.0 0.0 0.00 0.14 0.00 93 1006.1
20260904050056 58 0.0 0.0 0.00 0.14 0.00 94 1006.2
20260904044553 58 0.0 0.0 0.00 0.14 0.00 94 1006.3
20260904043050 58 0.0 0.0 0.00 0.14 0.00 95 1006.1
20260904041559 58 0.0 0.0 0.00 0.14 0.00 95 1005.9
20260904040054 58 0.0 0.0 0.00 0.14 0.00 95 1006.5
20260904034551 58 0.0 0.0 0.00 0.14 0.00 95 1006.4
20260904033102 58 0.0 0.0 0.00 0.14 0.00 95 1006.5
20260904031558 58 0.0 0.0 0.00 0.14 0.00 95 1006.8
20260904030055 58 0.0 0.0 0.00 0.14 0.00 94 1006.7
20260904024552 58 0.0 0.0 0.00 0.14 0.00 94 1006.7
20260904023049 58 0.0 0.0 0.00 0.14 0.00 94 1006.7
20260904021555 58 0.0 0.0 0.00 0.14 0.00 94 1007.1
20260904020052 58 0.0 0.0 0.00 0.14 0.00 93 1007.2
20260904014608 59 0.0 0.0 0.00 0.14 0.00 93 1007.0
20260904013053 59 0.0 0.0 0.00 0.14 0.00 93 1007.0
20260904011553 59 0.0 0.0 0.00 0.14 0.00 94 1007.1
20260904010115 59 0.0 0.0 0.00 0.14 0.00 93 1007.1
20260904004556 59 0.0 0.0 0.00 0.14 0.00 93 1007.3
20260904003053 59 0.0 0.0 0.00 0.14 0.00 93 1007.4
20260904001601 59 0.0 0.0 0.00 0.14 0.00 93 1007.2
20260904000055 59 0.0 0.0 0.00 0.14 0.00 93 1007.4
20260903234555 59 0.0 0.0 0.00 0.14 0.00 93 1007.7
20260903233104 60 0.0 0.0 0.00 0.14 0.00 92 1007.6
20260903231605 60 0.0 0.0 0.00 0.14 0.00 92 1007.6
20260903230057 60 0.0 0.0 0.00 0.14 0.00 93 1007.8
20260903224553 59 0.0 0.0 0.00 0.14 0.00 92 1007.7
20260903223100 60 0.0 0.0 0.00 0.14 0.00 92 1007.9
20260903221555 60 0.0 0.0 0.00 0.14 0.00 92 1007.7
20260903220054 60 0.0 0.0 0.00 0.14 0.00 93 1007.8
20260903214552 60 0.0 0.0 0.00 0.14 0.14 92 1007.6
20260903213104 61 0.0 0.0 0.00 0.14 0.14 92 1007.6
20260903211557 61 0.0 0.0 0.00 0.14 0.14 92 1007.5
20260903210108 61 0.0 0.0 0.00 0.14 0.14 92 1007.5
20260903204616 62 0.0 0.0 0.00 0.14 0.14 92 1007.6
20260903203050 62 0.0 0.0 0.00 0.14 0.14 92 1007.6
20260903201557 62 0.0 0.0 0.00 0.14 0.14 93 1007.7
20260903200058 62 0.0 0.0 0.00 0.14 0.14 92 1007.5
20260903194552 62 0.0 0.0 0.00 0.14 0.14 92 1007.5
20260903193101 62 0.0 0.0 0.00 0.14 0.14 92 1007.2
20260903191554 63 0.0 0.0 0.00 0.14 0.14 92 1007.3
20260903190054 63 0.0 0.0 0.00 0.14 0.14 94 1007.1
20260903184553 63 0.0 0.0 0.00 0.14 0.14 95 1007.1
20260903183054 63 0.0 0.0 0.00 0.14 0.14 96 1007.1
20260903181604 63 0.0 0.0 0.00 0.14 0.14 97 1006.8
20260903180101 63 0.0 0.0 0.00 0.14 0.14 97 1006.8